User: anonymous   Login
Location: Pilipovskiye Korichintsy
(49.1833°N, 27.4667°E)
Time: 09:57:12
(UTC+00:00)
Language:

CZ-4B R/B - Orbit

View from above orbital plane
View from above orbital plane
View from above satellite
View from above satellite

Ground track
Ground track

The orbit data is extracted from the following two-line orbital elements,

1 32959U 08026B   20269.85813616 -.00000009 +00000-0 +11879-4 0  9991
2 32959 098.8556 214.0189 0070319 357.2539 062.6020 14.41775358648773
Epoch (UTC): 25 September 2020 20:35:42
Eccentricity: 0.0070319
inclination: 98.8556°
perigee height: 702 km
apogee height: 803 km
right ascension of ascending node: 214.0189°
argument of perigee: 357.2539°
revolutions per day: 14.41775358
mean anomaly at epoch: 62.6020°
orbit number at epoch: 64877

The dashed part of the orbit path shows where the satellite is in the earth's shadow,  

DLR